FW9434 Weather Reports


time (UTC)temp
C
wind
direction
speed
KPH
gust
KPH
rain 1hr
cm
rain 24hr
cm
rain mn
cm
humidity
%
barometer
mb
20260504175357 20 142 1.6 1.6 0.00 0.00 0.00 39 1011.6
20260504174855 20 138 9.7 11.3 0.00 0.00 0.00 38 1011.5
20260504174352 21 143 11.3 14.5 0.00 0.00 0.00 37 1011.5
20260504173849 20 148 4.8 4.8 0.00 0.00 0.00 38 1011.4
20260504173346 21 122 0.0 0.0 0.00 0.00 0.00 40 1011.5
20260504172843 20 120 0.0 1.6 0.00 0.00 0.00 38 1011.7
20260504172340 20 203 11.3 14.5 0.00 0.00 0.00 36 1011.7
20260504171835 21 219 8.0 11.3 0.00 0.00 0.00 37 1011.7
20260504171333 20 111 0.0 0.0 0.00 0.00 0.00 40 1011.9
20260504170830 21 163 3.2 3.2 0.00 0.00 0.00 37 1011.5
20260504170326 21 138 3.2 3.2 0.00 0.00 0.00 39 1012.0
20260504160245 19 139 0.0 0.0 0.00 0.00 0.00 41 1012.7
20260504150710 18 135 3.2 4.8 0.00 0.00 0.00 40 1013.1
20260504150207 18 84 1.6 4.8 0.00 0.00 0.00 42 1013.1
20260504141136 16 111 6.4 9.7 0.00 0.00 0.00 48 1013.5
20260504140633 16 151 1.6 1.6 0.00 0.00 0.00 51 1013.4
20260504140129 16 172 1.6 1.6 0.00 0.00 0.00 51 1013.7
20260504130557 13 142 8.0 8.0 0.00 0.00 0.00 59 1014.3
20260504110445 7 142 0.0 0.0 0.00 0.00 0.00 63 1014.6
20260504100407 7 142 1.6 1.6 0.00 0.00 0.00 60 1014.3
20260504081800 8 138 0.0 1.6 0.00 0.00 0.00 57 1013.9
20260504081256 8 138 0.0 1.6 0.00 0.00 0.00 56 1013.9
20260504080753 8 144 1.6 1.6 0.00 0.00 0.00 56 1013.8
20260504080249 8 138 0.0 1.6 0.00 0.00 0.00 56 1014.1
20260504070217 8 128 0.0 0.0 0.00 0.00 0.00 56 1014.0
20260504060137 9 149 1.6 1.6 0.00 0.00 0.00 54 1013.8
20260504050606 10 135 1.6 1.6 0.00 0.00 0.00 53 1013.7
20260504045559 9 234 1.6 1.6 0.00 0.00 0.00 53 1013.5
20260504045054 10 152 1.6 1.6 0.00 0.00 0.00 53 1013.5
20260504044553 10 131 1.6 1.6 0.00 0.00 0.00 53 1013.2
20260504044049 10 201 1.6 3.2 0.00 0.00 0.00 53 1013.5
20260504043547 10 136 1.6 1.6 0.00 0.00 0.00 53 1013.5
20260504043043 10 142 1.6 1.6 0.00 0.00 0.00 53 1013.6
20260504042540 10 159 1.6 3.2 0.00 0.00 0.00 52 1013.5
20260504042037 10 135 1.6 1.6 0.00 0.00 0.00 52 1013.3
20260504041533 10 128 1.6 1.6 0.00 0.00 0.00 51 1013.1
20260504041029 10 137 1.6 3.2 0.00 0.00 0.00 51 1013.2
20260504040527 10 135 0.0 1.6 0.00 0.00 0.00 51 1013.0
20260504040024 10 137 1.6 3.2 0.00 0.00 0.00 50 1013.2
20260504035521 10 140 1.6 1.6 0.00 0.00 0.00 50 1013.1
20260504035017 10 174 3.2 4.8 0.00 0.00 0.00 49 1013.3
20260504034515 10 142 1.6 1.6 0.00 0.00 0.00 49 1013.2
20260504034011 10 136 0.0 1.6 0.00 0.00 0.00 49 1013.0
20260504033509 10 176 3.2 3.2 0.00 0.00 0.00 49 1012.8
20260504033007 10 135 0.0 1.6 0.00 0.00 0.00 49 1013.1
20260504032503 10 131 0.0 1.6 0.00 0.00 0.00 49 1013.0
20260504032000 10 142 1.6 3.2 0.00 0.00 0.00 48 1013.2
20260504031456 10 131 0.0 1.6 0.00 0.00 0.00 48 1012.8
20260504030953 11 135 0.0 1.6 0.00 0.00 0.00 47 1012.9
20260504030451 11 131 1.6 1.6 0.00 0.00 0.00 47 1013.1
20260504025946 11 131 0.0 1.6 0.00 0.00 0.00 46 1012.9
20260504025443 11 138 1.6 1.6 0.00 0.00 0.00 46 1012.7
20260504024940 11 290 3.2 3.2 0.00 0.00 0.00 46 1013.0
20260504024437 11 117 0.0 0.0 0.00 0.00 0.00 45 1013.0
20260504023934 11 131 1.6 1.6 0.00 0.00 0.00 45 1012.9
20260504023431 11 159 3.2 3.2 0.00 0.00 0.00 44 1012.9
20260504022926 11 159 1.6 1.6 0.00 0.00 0.00 44 1012.9
20260504022423 11 260 3.2 3.2 0.00 0.00 0.00 44 1013.0
20260504021920 11 167 1.6 1.6 0.00 0.00 0.00 44 1012.9
20260504021417 11 290 3.2 3.2 0.00 0.00 0.00 44 1012.9
20260504020914 11 230 3.2 3.2 0.00 0.00 0.00 43 1013.0
20260504020411 11 219 1.6 1.6 0.00 0.00 0.00 43 1012.9
20260504015907 11 198 1.6 3.2 0.00 0.00 0.00 43 1013.0
20260504015404 11 131 0.0 1.6 0.00 0.00 0.00 43 1012.9
20260504014900 11 131 1.6 1.6 0.00 0.00 0.00 43 1012.9
20260504014355 12 135 1.6 1.6 0.00 0.00 0.00 42 1013.0
20260504013853 12 135 0.0 1.6 0.00 0.00 0.00 42 1012.7
20260504013351 12 129 0.0 0.0 0.00 0.00 0.00 41 1012.8
20260504012847 12 129 0.0 1.6 0.00 0.00 0.00 41 1012.6
20260504012345 12 127 0.0 1.6 0.00 0.00 0.00 41 1012.7
20260504011843 12 135 1.6 1.6 0.00 0.00 0.00 40 1012.4
20260504011339 12 127 0.0 0.0 0.00 0.00 0.00 40 1012.5
20260504010835 12 131 0.0 1.6 0.00 0.00 0.00 39 1012.4
20260504010330 12 135 1.6 1.6 0.00 0.00 0.00 39 1012.3
20260504005827 12 131 0.0 1.6 0.00 0.00 0.00 39 1012.6
20260504005324 12 131 0.0 1.6 0.00 0.00 0.00 39 1012.1
20260504004822 12 131 0.0 0.0 0.00 0.00 0.00 38 1012.2
20260504004319 12 131 0.0 1.6 0.00 0.00 0.00 38 1012.0
20260504003815 13 130 0.0 0.0 0.00 0.00 0.00 38 1012.1
20260504003313 13 130 0.0 0.0 0.00 0.00 0.00 38 1012.2
20260504002809 13 130 0.0 1.6 0.00 0.00 0.00 37 1012.0
20260504002306 13 125 1.6 1.6 0.00 0.00 0.00 38 1011.8
20260504001804 13 125 1.6 1.6 0.00 0.00 0.00 38 1011.8
20260504001301 13 123 1.6 1.6 0.00 0.00 0.00 37 1011.8
20260504000757 13 118 0.0 1.6 0.00 0.00 0.00 37 1011.6
20260504000254 13 137 1.6 1.6 0.00 0.00 0.00 37 1011.6
20260503235752 13 54 1.6 1.6 0.00 0.00 0.00 37 1011.4
20260503235249 13 62 1.6 3.2 0.00 0.00 0.00 37 1011.8
20260503234747 13 39 1.6 1.6 0.00 0.00 0.00 37 1011.7
20260503234245 13 270 0.0 1.6 0.00 0.00 0.00 36 1011.4
20260503233742 13 270 3.2 3.2 0.00 0.00 0.00 36 1011.5
20260503233238 13 282 0.0 0.0 0.00 0.00 0.00 35 1011.3
20260503232735 13 115 0.0 1.6 0.00 0.00 0.00 35 1011.3
20260503232232 14 140 3.2 3.2 0.00 0.00 0.00 34 1011.3
20260503231730 13 82 4.8 4.8 0.00 0.00 0.00 35 1011.1
20260503231226 14 96 1.6 1.6 0.00 0.00 0.00 35 1011.3
20260503230722 14 72 0.0 1.6 0.00 0.00 0.00 35 1011.0
20260503230220 14 66 3.2 4.8 0.00 0.00 0.00 34 1011.2
20260503225718 14 74 3.2 3.2 0.00 0.00 0.00 34 1010.9
20260503225218 14 71 1.6 1.6 0.00 0.00 0.00 34 1011.1
20260503224715 14 286 1.6 3.2 0.00 0.00 0.00 33 1010.9
20260503224213 15 127 0.0 1.6 0.00 0.00 0.00 34 1011.0
20260503223710 15 121 0.0 1.6 0.00 0.00 0.00 33 1011.0
20260503223207 15 290 1.6 1.6 0.00 0.00 0.00 32 1011.1
20260503222704 15 18 0.0 1.6 0.00 0.00 0.00 32 1010.8
20260503222202 15 58 1.6 1.6 0.00 0.00 0.00 31 1010.9
20260503221700 15 288 1.6 4.8 0.00 0.00 0.00 31 1011.1
20260503221157 15 65 1.6 1.6 0.00 0.00 0.00 32 1010.7
20260503220654 15 298 4.8 8.0 0.00 0.00 0.00 32 1010.7
20260503220150 15 71 1.6 1.6 0.00 0.00 0.00 32 1010.6
20260503215647 15 295 4.8 4.8 0.00 0.00 0.00 31 1010.9
20260503215144 15 94 0.0 1.6 0.00 0.00 0.00 33 1011.1
20260503214643 15 317 1.6 1.6 0.00 0.00 0.00 31 1010.9
20260503214138 15 344 3.2 8.0 0.00 0.00 0.00 32 1010.9
20260503213632 15 50 3.2 3.2 0.00 0.00 0.00 32 1010.9
20260503213128 15 63 1.6 1.6 0.00 0.00 0.00 32 1010.7
20260503212625 15 18 3.2 3.2 0.00 0.00 0.00 32 1011.0
20260503212123 15 349 3.2 3.2 0.00 0.00 0.00 30 1010.9
20260503211620 15 334 3.2 3.2 0.00 0.00 0.00 31 1010.7
20260503211116 15 322 3.2 3.2 0.00 0.00 0.00 32 1010.7
20260503210612 15 111 1.6 1.6 0.00 0.00 0.00 33 1010.7
20260503210109 15 70 1.6 3.2 0.00 0.00 0.00 31 1010.6
20260503205605 15 273 3.2 3.2 0.00 0.00 0.00 31 1010.6
20260503205101 15 36 0.0 1.6 0.00 0.00 0.00 32 1010.6
20260503204558 15 310 3.2 3.2 0.00 0.00 0.00 30 1010.9
20260503204056 15 105 0.0 0.0 0.00 0.00 0.00 33 1010.8
20260503203552 15 317 3.2 3.2 0.00 0.00 0.00 32 1010.7
20260503203050 15 288 3.2 3.2 0.00 0.00 0.00 33 1010.6
20260503202547 15 24 3.2 3.2 0.00 0.00 0.00 31 1011.1
20260503202045 15 312 4.8 8.0 0.00 0.00 0.00 33 1010.9
20260503201543 15 50 1.6 1.6 0.00 0.00 0.00 32 1010.9
20260503201040 15 274 3.2 3.2 0.00 0.00 0.00 33 1011.1
20260503200536 15 46 3.2 3.2 0.00 0.00 0.00 33 1011.1
20260503200033 15 201 3.2 3.2 0.00 0.00 0.00 36 1011.2
20260503195530 15 99 1.6 1.6 0.00 0.00 0.00 36 1011.1
20260503195027 15 243 4.8 8.0 0.00 0.00 0.00 33 1010.9
20260503194525 15 56 3.2 3.2 0.00 0.00 0.00 34 1011.1
20260503194024 15 299 6.4 8.0 0.00 0.00 0.00 33 1011.3
20260503193521 15 284 6.4 9.7 0.00 0.00 0.00 33 1011.0
20260503193016 15 80 0.0 1.6 0.00 0.00 0.00 34 1011.4
20260503192512 14 82 0.0 1.6 0.00 0.00 0.00 34 1011.5
20260503192008 14 277 4.8 8.0 0.00 0.00 0.00 33 1011.3
20260503191506 14 323 3.2 4.8 0.00 0.00 0.00 33 1011.3
20260503191002 14 55 1.6 3.2 0.00 0.00 0.00 35 1011.5
20260503190459 13 110 4.8 4.8 0.00 0.00 0.00 35 1011.4
20260503185956 13 311 4.8 4.8 0.00 0.00 0.00 34 1011.4
20260503185452 13 71 3.2 3.2 0.00 0.00 0.00 36 1011.6
20260503184952 13 78 1.6 4.8 0.00 0.00 0.00 35 1011.4
20260503184448 13 290 6.4 9.7 0.00 0.00 0.00 34 1011.8
20260503183945 13 155 4.8 4.8 0.00 0.00 0.00 37 1011.9
20260503183442 13 310 4.8 8.0 0.00 0.00 0.00 36 1011.7
20260503182938 14 50 3.2 3.2 0.00 0.00 0.00 36 1012.0
20260503182437 15 300 6.4 8.0 0.00 0.00 0.00 34 1011.6
20260503181935 13 71 0.0 1.6 0.00 0.00 0.00 36 1011.7
20260503181432 13 24 4.8 8.0 0.00 0.00 0.00 35 1011.7
20260503180927 13 352 1.6 3.2 0.00 0.00 0.00 38 1011.7
20260503180427 13 56 1.6 3.2 0.00 0.00 0.00 38 1011.8
20260503175923 14 54 1.6 1.6 0.00 0.00 0.00 36 1011.5